Погода в Пешково

Россия / Ростовская область     47°01′04″N   39°23′30″E
темп.,
°C
ветер,
м/с
пор.,
м/с
влажн.,
%
обл.,
%
осадки,
мм/ч
давл.,
гПа
погр.,
м
18 октября, пн
пн1800:00+13ссв335531 0.0 101439
03:00+11ссз226131 0.0 101422
06:00+10ссз346410 0.0 101555
09:00+13с355489 0.0 1016290
12:00+17сз344623 0.0 1016886
15:00+17зсз564670 0.0 10161042
18:00+13з486125 0.0 1017216
21:00+11з34665 0.0 101775
19 октября, вт
вт1900:00+10сз33585 0.0 101844
03:00+8зсз346355 0.0 101854
06:00+8з3764100 0.0 1018145
09:00+9зсз7864100 0.0 10181037
12:00+8зсз6879100 0.8 10181077
15:00+9зсз6978100 1.5 10181106
18:00+7сз71280100 0.2 1020799
21:00+5зсз36835 0.2 1023114
20 октября, ср
ср2000:00+6зсз410570 0.0 1023205
03:00+5зсз49645 0.0 1025223
06:00+5зсз49705 0.0 1026240
09:00+7сз69585 0.0 1027827
12:00+9сз68425 0.0 10271428
15:00+10сз57325 0.0 10271602
18:00+8зсз22375 0.0 102816
21:00+6юз01415 0.0 102910
21 октября, чт
чт2100:00+5юз345655 0.0 102853
03:00+5юз367388 0.0 1028104
06:00+5ююз377697 0.0 1028126
09:00+8ююз575330 0.0 1027286
12:00+13юз563418 0.0 1026903
15:00+15зюз56265 0.0 10241145
18:00+11юз364226 0.0 1023109
21:00+9ююз48535 0.0 1022146
22 октября, пт
пт2200:00+8ююз48625 0.0 1021141
03:00+8ююз49685 0.0 1020167
06:00+7ююз4107414 0.0 1020179
09:00+11ююз5116319 0.0 1020370
12:00+17юз685456 0.0 1019953
15:00+19зюз68475 0.0 10181146
18:00+14юз35665 0.0 101873
21:00+12юз34835 0.0 101867